This demonstration page uses our WeatherBlox Daily Observations layout. Learn more.

38.88101, -77.10428

Hourly Observations for August 4, 2018

Temp ( °F °C ) Dew Point ( °F °C ) Humidity (%) Winds ( mph kmh ) Pressure ( in mb ) Visibility ( mi km ) Precip ( " mm )
12:52 am 00:52 Mostly Cloudy 77 25 71 21.7 82 82 S 12 19 30.09 1019 10 16.0934 0 0
1:52 am 01:52 Cloudy 76 24.4 70 21.1 82 82 SSW 8 13 30.09 1019 10 16.0934 0 0
2:42 am 02:42 Cloudy 75 23.9 71 21.7 88 88 SW 6 9 30.09 1019 10 16.0934 0.01 0.254
2:52 am 02:52 Cloudy with Light Rain 75 23.9 71 21.7 88 88 WSW 5 7 30.07 1018 9 14.48406 0.01 0.254
3:13 am 03:13 Cloudy with Light Rain 74 23.3 71 21.7 91 91 SW 7 11 30.09 1019 5 8.0467 0 0.0254
3:24 am 03:24 Cloudy with Light Rain 74 23.3 71 21.7 91 91 SW 6 9 30.09 1019 4 6.43736 0.01 0.254
3:32 am 03:32 Cloudy with Light Rain 74 23.3 71 21.7 91 91 SSW 6 9 30.09 1019 2.5 4.02335 0.02 0.508
3:37 am 03:37 Cloudy with Rain 74 23.3 71 21.7 91 91 SSW 7 11 30.09 1019 3 4.82802 0.03 0.762
3:52 am 03:52 Cloudy with Rain 74 23.3 71 21.7 91 91 SW 9 15 30.08 1019 3 4.82802 0.06 1.524
3:54 am 03:54 Cloudy with Rain 74 23.3 71 21.7 91 91 SW 8 13 30.09 1019 2.5 4.02335 0 0.0254
4:04 am 04:04 Cloudy with Light Rain 74 23.3 71 21.7 91 91 SW 6 9 30.09 1019 2.5 4.02335 0.02 0.508
4:12 am 04:12 Cloudy with Light Rain 74 23.3 71 21.7 91 91 SW 5 7 30.09 1019 3 4.82802 0.04 1.016
4:35 am 04:35 Cloudy 74 23.3 71 21.7 91 91 WSW 5 7 30.09 1019 10 16.0934 0.04 1.016
4:52 am 04:52 Cloudy with Light Rain 74 23.3 71 21.7 91 91 SW 6 9 30.08 1019 10 16.0934 0.04 1.016
5:14 am 05:14 Cloudy 74 23.3 71 21.7 91 91 SW 7 11 30.09 1019 10 16.0934 0 0.0254
5:41 am 05:41 Partly Cloudy 73 22.8 70 21.1 90 90 WSW 8 13 30.09 1019 10 16.0934 0 0.0254
5:52 am 05:52 Partly Cloudy 73 22.8 70 21.1 90 90 WSW 6 9 30.1 1019 10 16.0934 0 0.0254
6:47 am 06:47 Mostly Cloudy 73 23 70 21 89 89 W 8 13 30.12 1020 10 16.0934 0 0
6:52 am 06:52 Mostly Cloudy 73 22.8 69 20.6 87 87 W 7 11 30.12 1020 10 16.0934 0 0
7:00 am 07:00 Mostly Cloudy 73 22.8 69 20.6 87 87 W 5 7 30.12 1020 10 16.0934 0 0
7:39 am 07:39 Cloudy 74 23.3 70 21.1 88 88 W 3 6 30.15 1021 10 16.0934 0 0
7:52 am 07:52 Mostly Cloudy 74 23.3 70 21.1 88 88 W 5 7 30.14 1021 10 16.0934 0 0
8:15 am 08:15 Mostly Cloudy 75 23.9 70 21.1 84 84 WNW 3 6 30.15 1021 10 16.0934 0 0
8:52 am 08:52 Mostly Cloudy 76 24.4 70 21.1 82 82 W 7 11 30.16 1021 10 16.0934 0 0
9:52 am 09:52 Mostly Cloudy 78 25.6 70 21.1 76 76 NNW 10 17 30.16 1021 10 16.0934 0 0
10:52 am 10:52 Mostly Cloudy 80 26.7 70 21.1 71 71 NW 8 13 30.17 1022 10 16.0934 0 0
11:44 am 11:44 Mostly Cloudy 82 27.8 69 20.6 65 65 NW 7 11 30.18 1022 10 16.0934 0 0
11:52 am 11:52 Mostly Cloudy 83 28.3 70 21.1 65 65 VRB 3 6 30.17 1022 10 16.0934 0 0
12:04 pm 12:04 Mostly Cloudy 82 27.8 70 21.1 67 67 VRB 7 11 30.18 1022 10 16.0934 0 0
12:31 pm 12:31 Mostly Cloudy 85 29.4 70 21.1 61 61 NW 6 9 30.15 1021 10 16.0934 0 0
12:52 pm 12:52 Mostly Cloudy 83 28.3 70 21.1 65 65 NNE 6 9 30.16 1021 10 16.0934 0 0
1:52 pm 13:52 Mostly Cloudy 85 29.4 70 21.1 61 61 E 5 7 30.14 1021 10 16.0934 0 0
2:52 pm 14:52 Partly Cloudy 86 30 71 21.7 61 61 VRB 7 11 30.13 1020 10 16.0934 0 0
3:52 pm 15:52 Partly Cloudy 86 30 70 21.1 59 59 S 8 13 30.12 1020 10 16.0934 0 0
4:52 pm 16:52 Partly Cloudy 89 31.7 66 18.9 47 47 W 5 7 30.12 1020 10 16.0934 0 0
5:52 pm 17:52 Mostly Sunny 88 31.1 68 20 52 52 VRB 5 7 30.12 1020 10 16.0934 0 0
6:52 pm 18:52 Mostly Sunny 88 31.1 66 18.9 48 48 SW 3 6 30.11 1020 10 16.0934 0 0
7:52 pm 19:52 Mostly Sunny 83 28.3 70 21.1 65 65 S 6 9 30.12 1020 10 16.0934 0 0
8:52 pm 20:52 Mostly Clear 83 28.3 69 20.6 63 63 WSW 6 9 30.13 1020 10 16.0934 0 0
9:52 pm 21:52 Clear 79 26.1 71 21.7 77 77 S 8 13 30.14 1021 10 16.0934 0 0
10:52 pm 22:52 Clear 79 26.1 71 21.7 77 77 S 5 7 30.15 1021 10 16.0934 0 0
11:52 pm 23:52 Mostly Clear 77 25 72 22.2 85 85 S 6 9 30.16 1021 10 16.0934 0 0

Powered by AerisWeather